RH
69 72 74 75 73 74 78 79 79 73 75 75 81 94 88 91 91 93 96 91 83 82 80 87 88 86 89 94 98 95 83 82 81 81 80 84 87 84 79 79 86 92 91
75 70 67 71 73 74 72 76 84 80 74 76 90 94 94 83 84 93 94 96 91 87 85 88 88 91 93 91 75 77 79 77 74 73 73 69 77 79 77 85 85 92 86
72 74 69 71 79 82 78 78 78 85 83 90 95 91 81 91 87 91 94 88 89 88 89 89 90 94 94 73 63 58 66 71 70 73 73 72 86 78 76 79 81 77 77
70 68 70 69 70 78 78 78 76 82 84 86 83 78 76 86 90 91 93 92 92 93 95 96 96 95 82 72 71 66 58 52 66 66 71 73 74 77 77 76 78 75 74
76 71 73 72 72 67 76 76 74 74 77 79 78 76 73 84 92 94 93 97 84 87 94 89 86 82 74 70 71 72 70 64 61 58 65 76 73 80 78 76 78 76 81
73 74 82 78 79 74 71 72 72 74 76 77 77 73 75 73 78 90 90 83 67 67 70 68 70 71 72 68 68 67 66 66 66 55 58 66 78 72 76 80 79 78 77
71 77 80 74 74 75 76 76 72 68 74 80 79 76 70 73 72 85 65 62 67 71 66 60 52 54 65 66 65 65 61 61 59 59 59 68 85 88 68 70 73 71 73
77 81 75 59 56 58 70 74 74 75 78 83 82 78 76 67 73 82 82 70 76 74 76 75 68 57 50 52 60 62 58 48 47 53 59 71 79 91 92 70 73 76 77
84 78 79 85 78 72 76 76 76 82 82 80 78 75 59 71 74 82 84 86 85 86 90 78 70 66 65 55 46 48 55 51 50 50 46 62 72 89 96 93 71 74 72
80 81 79 84 81 83 88 68 78 80 76 80 76 77 75 76 70 75 81 85 86 85 85 86 87 85 77 69 65 55 40 43 50 58 57 60 66 84 81 87 90 94 89
79 78 81 89 86 86 86 82 78 79 85 82 78 78 77 92 90 86 87 89 87 87 84 85 86 86 84 83 80 75 67 69 49 50 58 60 63 86 64 59 85 88 91
68 70 74 86 88 90 93 86 84 72 81 87 86 85 87 86 84 88 74 76 78 85 86 84 85 84 80 94 94 80 76 73 64 58 61 61 62 73 89 69 53 64 78
68 69 74 79 82 81 90 99 95 89 96 84 90 78 76 81 85 81 88 86 92 84 93 88 90 92 92 95 94 92 88 82 74 74 81 69 62 66 81 89 80 60 63
71 71 70 66 71 78 76 75 80 82 91 96 99 99 98 98 89 88 94 91 88 84 78 74 72 79 82 80 81 79 78 73 69 70 78 85 82 71 71 81 79 80 75
63 62 63 62 68 69 64 68 69 72 74 85 92 98 98 97 98 97 98 95 89 84 79 73 68 61 58 60 63 64 66 70 70 70 75 81 89 84 75 79 80 80 87
55 54 59 60 66 63 63 63 62 65 72 77 78 82 89 95 95 94 92 86 79 77 77 72 66 63 63 65 64 66 65 66 61 63 66 72 82 96 88 83 86 91 89
49 50 53 61 64 61 61 60 62 62 61 63 66 71 73 75 77 80 78 74 70 70 69 64 63 63 59 56 55 59 60 59 58 59 63 53 67 72 84 96 92 86 85
44 48 50 55 63 62 62 60 59 60 57 58 59 62 63 66 68 67 68 70 58 64 73 67 62 57 57 56 54 54 56 57 57 56 58 58 65 69 71 64 68 76 80
43 46 52 55 61 62 62 61 63 64 60 58 58 62 67 66 62 61 65 72 73 72 72 72 72 71 61 58 55 48 54 56 58 60 63 68 64 69 70 71 65 61 58
44 46 51 55 59 63 64 64 64 67 62 61 60 62 62 67 66 63 65 67 64 65 65 69 71 74 74 69 58 50 58 64 66 71 74 77 77 68 75 77 80 76 73
47 49 51 53 59 61 62 58 59 58 65 66 70 68 69 67 71 66 65 66 65 61 62 61 65 67 69 69 68 56 62 63 67 67 65 71 83 82 82 79 77 78 77
50 52 52 54 58 59 57 56 54 60 62 71 76 75 73 74 75 71 71 70 67 64 64 63 64 59 63 69 64 62 61 62 59 65 69 68 76 80 80 78 76 72 72
53 56 54 54 58 58 59 65 64 70 72 72 76 79 80 78 80 78 78 73 75 70 72 70 69 66 58 66 68 66 56 57 54 60 66 67 67 65 65 69 75 75 73
54 59 56 56 59 61 63 66 65 60 59 62 73 80 83 84 75 78 72 81 83 80 78 74 74 70 64 61 66 66 68 68 60 58 61 67 62 60 65 64 70 73 74
56 62 59 59 62 61 66 60 61 55 58 70 75 83 83 88 86 80 82 82 82 80 81 82 80 77 74 70 70 68 67 69 70 67 62 54 60 63 65 63 63 65 73
60 66 64 61 63 63 65 64 62 59 65 71 75 78 79 82 86 85 84 84 84 83 83 83 83 84 81 77 76 74 70 66 63 66 68 63 66 66 67 63 62 61 68
Wind_Speed
4 4 3 3 3 2 3 3 5 6 8 7 8 8 9 8 7 8 9 10 9 9 9 10 10 10 10 9 10 11 12 11 11 11 10 10 9 8 8 9 9 11 15
5 3 1 3 2 3 5 4 4 5 7 9 9 9 8 8 7 9 10 9 8 7 8 9 10 10 10 9 9 10 11 11 11 13 12 10 9 8 8 5 8 12 14
5 4 2 1 0 1 3 6 6 6 6 6 9 9 8 8 7 7 6 8 8 8 9 9 9 10 10 9 8 8 9 10 12 13 10 8 8 8 6 6 7 9 14
5 3 2 1 0 1 2 2 3 5 6 7 8 7 8 8 9 9 9 10 9 8 8 8 9 8 9 9 9 8 8 9 10 7 9 9 8 8 6 6 6 7 9
3 4 1 1 0 1 3 5 4 3 5 5 5 6 6 8 9 7 10 10 8 8 8 7 7 7 7 8 9 9 8 9 9 8 7 6 7 7 7 8 6 6 8
4 4 5 5 4 2 1 6 7 2 4 8 6 5 4 4 6 7 7 7 7 7 7 7 6 6 6 7 7 8 8 7 4 5 5 5 7 5 6 7 7 7 7
3 4 4 4 4 3 4 2 3 8 7 9 8 9 7 5 4 5 5 6 6 6 6 6 6 5 4 4 5 6 6 6 6 4 4 7 7 3 3 5 5 6 7
3 4 3 2 4 4 1 5 6 5 6 5 5 9 10 5 5 5 6 5 5 5 5 5 4 4 4 3 3 3 4 4 2 3 3 5 8 4 3 3 4 5 5
4 4 2 1 3 5 2 6 8 9 5 3 3 4 7 7 5 5 6 6 6 6 5 5 5 4 3 2 2 2 2 4 3 2 2 4 6 7 3 3 4 4 5
4 4 2 1 1 1 2 6 8 8 7 1 1 1 3 5 5 4 5 7 7 7 7 6 5 4 4 3 2 2 1 2 1 2 3 1 3 5 4 2 4 4 3
5 4 3 1 2 2 1 3 4 6 6 6 3 3 3 2 4 4 6 8 8 8 7 7 7 6 5 4 3 3 2 3 2 2 2 2 3 3 3 2 3 5 5
6 5 2 2 1 1 2 2 2 4 2 4 7 8 5 5 5 4 5 8 8 7 6 6 5 5 4 5 4 3 2 5 3 3 3 3 2 3 0 1 0 2 4
5 3 2 2 1 1 2 2 1 2 2 4 5 8 9 10 7 4 9 5 3 3 3 2 3 5 5 3 3 4 4 4 4 5 3 4 3 4 4 3 1 0 1
6 3 2 2 3 3 3 3 3 3 1 1 2 3 5 7 8 9 5 5 4 1 2 3 3 2 1 0 0 1 2 3 3 2 4 5 4 4 5 6 5 4 1
6 4 4 4 5 4 5 5 5 5 5 4 3 3 5 4 5 6 5 6 4 1 1 2 3 2 1 2 2 2 2 1 2 2 5 8 6 6 5 4 5 5 3
8 7 5 5 5 6 6 7 6 6 5 5 5 4 4 6 8 8 5 4 2 2 1 2 3 4 2 3 3 3 3 2 4 4 2 6 7 5 6 6 5 6 6
10 8 6 6 7 7 7 6 6 6 5 5 6 5 5 4 4 3 2 3 3 1 2 3 3 5 4 4 5 4 4 4 5 4 6 6 4 7 6 4 7 9 9
12 11 9 8 8 8 7 6 6 5 5 5 4 4 4 3 3 3 3 1 1 1 1 1 3 4 4 5 6 5 5 4 4 5 5 5 5 5 6 5 8 9 9
13 12 11 10 11 10 9 7 6 6 5 4 4 5 4 3 3 2 2 1 2 1 1 0 2 1 3 4 6 5 5 4 3 4 3 4 6 8 3 5 6 7 7
14 14 13 11 11 10 9 8 7 6 5 5 5 4 4 3 3 3 2 1 1 1 1 1 1 1 0 4 5 3 2 1 1 2 2 3 3 3 3 2 3 5 9
15 14 15 15 14 13 9 8 7 6 5 5 4 4 4 4 3 3 2 2 1 1 1 1 1 1 2 5 4 2 2 2 2 4 5 5 6 5 4 2 1 2 5
17 18 17 15 15 12 10 7 5 6 4 4 3 5 5 5 5 5 4 4 3 3 3 4 3 1 2 6 2 1 2 3 1 1 2 5 5 5 4 3 2 3 3
16 16 16 14 13 12 10 10 8 6 7 6 6 4 5 5 7 7 6 5 3 4 3 5 5 5 4 4 6 3 2 1 2 2 2 1 3 3 4 6 5 5 4
16 14 14 14 14 12 12 11 12 9 8 6 7 5 5 3 6 5 7 4 4 5 4 4 4 5 4 3 1 5 4 4 2 2 6 4 3 6 6 7 6 6 6
12 14 13 13 14 12 13 10 10 8 7 9 8 8 6 4 4 4 5 4 4 5 3 4 4 4 4 4 5 4 3 2 2 1 2 0 8 6 8 8 8 8 7
10 10 11 13 14 13 13 12 11 10 10 10 10 11 9 6 5 3 4 5 3 4 3 3 3 3 3 3 3 3 4 4 6 3 2 7 8 8 11 9 7 6 5
Wind_Direction
50 107 136 139 145 164 212 188 168 173 166 171 160 140 127 123 116 139 129 115 106 96 94 96 94 88 81 74 71 74 80 84 87 91 93 94 92 93 106 115 114 119 121
349 32 56 152 182 199 181 190 185 173 167 168 156 146 143 135 129 115 124 115 111 108 100 97 99 96 86 75 76 81 82 85 89 87 82 76 87 92 106 107 134 137 129
57 101 72 47 58 228 217 185 187 179 173 156 156 161 150 134 129 138 132 119 114 113 109 101 98 94 87 82 80 84 85 84 90 88 80 88 80 89 102 119 127 133 132
78 71 67 275 221 208 210 224 199 193 192 181 172 167 159 141 134 135 138 125 119 115 111 108 106 95 86 80 82 89 92 88 91 64 84 70 79 79 88 102 117 128 125
77 91 225 12 170 187 187 180 186 211 231 205 191 172 172 161 141 133 146 133 136 133 122 115 114 108 95 86 86 86 97 91 83 67 64 67 75 76 87 96 94 115 127
85 89 97 104 80 106 268 203 159 180 233 218 185 179 172 190 148 146 149 148 140 132 128 127 122 119 113 102 97 89 90 95 69 78 81 64 55 69 90 106 113 118 121
114 108 83 131 119 115 129 196 253 205 224 237 191 167 168 169 191 164 162 155 150 141 132 126 127 130 130 121 112 109 104 99 75 80 80 64 40 97 92 116 124 119 135
135 128 108 98 71 59 65 161 167 211 192 197 178 156 154 154 193 195 185 175 171 163 158 148 139 133 133 144 142 131 121 113 64 88 82 72 62 80 126 123 124 126 131
146 154 127 332 302 347 149 190 189 159 158 176 147 172 157 168 188 196 198 198 197 186 181 178 172 166 156 151 157 173 163 134 88 98 101 100 70 55 137 145 145 139 136
159 156 135 60 127 122 69 194 200 175 154 286 157 200 193 161 173 185 206 203 208 203 199 198 200 195 196 197 202 220 164 153 183 130 118 80 100 64 75 171 179 177 167
181 176 178 150 132 157 150 167 175 199 146 180 160 262 226 121 129 147 206 217 209 207 205 203 206 212 220 243 244 241 228 242 210 192 144 142 145 97 53 107 178 204 211
199 179 162 166 173 112 109 168 218 203 172 193 181 222 222 231 197 188 239 216 225 207 207 213 218 218 213 228 254 294 257 274 246 206 215 234 180 168 167 36 50 226 223
202 181 118 96 57 17 58 126 199 222 198 246 261 228 243 256 270 263 281 306 284 213 214 218 239 239 262 259 257 271 277 268 284 259 248 258 230 212 209 241 302 305 225
201 179 142 109 96 79 81 94 105 132 141 271 180 168 218 221 233 214 201 229 252 227 236 228 212 196 152 170 238 270 296 313 294 307 269 271 247 234 219 237 260 258 235
206 182 151 129 129 113 102 94 93 93 103 91 95 120 121 181 171 197 195 215 210 258 270 293 271 224 244 272 282 281 278 285 286 282 292 296 264 238 222 211 238 244 228
199 188 163 141 129 118 112 104 98 96 93 102 99 99 135 163 178 187 176 192 188 195 302 295 296 287 270 270 263 271 282 284 258 232 243 294 291 256 226 219 207 198 221
196 180 166 152 145 141 130 121 112 105 105 95 93 93 103 120 142 161 214 243 227 270 309 296 294 293 274 277 276 280 286 284 283 290 283 240 279 297 250 233 240 246 253
193 185 173 162 157 148 143 131 128 128 126 120 110 99 91 97 127 141 134 126 298 304 302 307 284 278 289 296 284 284 281 285 293 293 271 265 266 253 296 279 263 266 271
193 185 174 167 164 159 155 147 143 138 128 122 120 119 108 106 108 119 122 121 110 82 354 311 316 335 300 292 294 286 284 285 279 290 288 266 237 239 223 295 301 292 287
194 187 179 171 171 165 158 155 151 138 133 134 131 122 112 106 100 115 110 97 118 106 42 312 300 329 313 316 290 290 308 334 97 70 32 21 356 237 252 246 316 314 308
196 188 181 177 177 173 178 172 168 162 147 129 121 110 105 98 91 101 115 102 89 131 105 341 259 359 358 353 317 148 108 106 91 84 62 53 50 61 74 56 41 14 333
193 188 188 187 183 182 177 178 188 165 146 140 116 105 105 108 95 96 93 89 97 96 73 58 23 293 25 34 355 285 181 175 154 131 68 66 62 61 38 42 13 15 1
203 196 191 188 188 184 177 170 157 155 148 148 147 127 105 105 109 102 96 90 69 83 65 62 48 23 21 29 36 350 219 139 331 177 202 80 44 359 349 347 333 341 320
202 199 194 187 187 189 181 181 180 182 181 180 163 154 127 108 113 102 101 91 92 76 64 54 49 41 13 25 7 29 29 14 324 193 179 185 39 341 332 319 298 304 311
195 196 195 191 187 191 192 198 192 194 175 165 160 154 151 149 123 115 108 105 95 94 78 60 40 43 41 28 25 10 3 19 11 326 315 157 354 335 333 320 306 291 283
183 196 198 197 194 193 199 201 202 193 178 171 171 167 163 176 152 119 129 119 117 109 102 70 40 33 39 29 17 19 4 352 349 338 317 328 320 325 323 309 308 303 276